| time (UTC) | temp C | wind direction | speed KPH | gust KPH | rain 1hr cm | rain 24hr cm | rain mn cm | humidity % | barometer mb |
| 20260510011600 | 10 | 283 | 8.0 | 14.5 | 0.00 | 1.75 | 1.75 | 1 | 1011.1 |
| 20260510010044 | 10 | 93 | 6.4 | 17.7 | 0.00 | 1.75 | 1.75 | 1 | 1011.0 |
| 20260510004540 | 10 | 289 | 4.8 | 12.9 | 0.00 | 1.75 | 1.75 | 1 | 1010.7 |
| 20260510003036 | 10 | 284 | 6.4 | 12.9 | 0.00 | 1.75 | 1.75 | 1 | 1010.7 |
| 20260510001532 | 10 | 291 | 6.4 | 14.5 | 0.00 | 1.75 | 1.75 | 1 | 1010.6 |
| 20260510000036 | 10 | 237 | 9.7 | 19.3 | 0.00 | 1.75 | 1.75 | 1 | 1010.0 |
| 20260509234548 | 10 | 243 | 6.4 | 12.9 | 0.00 | 1.75 | 1.75 | 1 | 1009.9 |
| 20260509233003 | 10 | 65 | 3.2 | 9.7 | 0.00 | 1.75 | 1.75 | 1 | 1009.8 |
| 20260509231520 | 10 | 245 | 6.4 | 14.5 | 0.00 | 1.75 | 1.75 | 13 | 1009.9 |
| 20260509230041 | 10 | 285 | 3.2 | 12.9 | 0.00 | 1.75 | 1.75 | 31 | 1010.0 |
| 20260509224524 | 10 | 311 | 6.4 | 12.9 | 0.00 | 1.75 | 1.75 | 36 | 1010.1 |
| 20260509223052 | 10 | 290 | 3.2 | 14.5 | 0.00 | 1.75 | 1.75 | 27 | 1010.1 |
| 20260509221525 | 10 | 135 | 1.6 | 12.9 | 0.00 | 1.75 | 1.75 | 27 | 1009.9 |
| 20260509220046 | 10 | 300 | 6.4 | 19.3 | 0.00 | 1.75 | 1.75 | 54 | 1009.8 |
| 20260509214512 | 10 | 302 | 9.7 | 25.7 | 0.00 | 1.75 | 1.75 | 60 | 1010.1 |
| 20260509213045 | 10 | 240 | 4.8 | 19.3 | 0.00 | 1.75 | 1.75 | 58 | 1010.3 |
| 20260509211520 | 10 | 84 | 4.8 | 17.7 | 0.03 | 1.75 | 1.75 | 57 | 1010.3 |
| 20260509210051 | 10 | 330 | 4.8 | 17.7 | 0.08 | 1.75 | 1.75 | 46 | 1010.5 |
| 20260509204522 | 10 | 14 | 6.4 | 14.5 | 0.13 | 1.75 | 1.75 | 33 | 1010.3 |
| 20260509203101 | 9 | 312 | 6.4 | 16.1 | 0.20 | 1.75 | 1.75 | 9 | 1010.7 |
| 20260509201526 | 9 | 336 | 6.4 | 17.7 | 0.25 | 1.73 | 1.73 | 1 | 1011.0 |
| 20260509200051 | 9 | 247 | 8.0 | 20.9 | 0.28 | 1.68 | 1.68 | 1 | 1011.0 |
| 20260509194527 | 9 | 291 | 12.9 | 29.0 | 0.36 | 1.63 | 1.63 | 1 | 1011.2 |
| 20260509193057 | 9 | 330 | 9.7 | 25.7 | 0.36 | 1.55 | 1.55 | 1 | 1011.4 |
| 20260509191533 | 9 | 301 | 8.0 | 20.9 | 0.36 | 1.45 | 1.45 | 1 | 1011.4 |
| 20260509190057 | 9 | 303 | 9.7 | 20.9 | 0.33 | 1.40 | 1.40 | 1 | 1011.6 |
| 20260509184542 | 9 | 255 | 9.7 | 17.7 | 0.25 | 1.27 | 1.27 | 1 | 1011.7 |
| 20260509183113 | 8 | 302 | 11.3 | 20.9 | 0.28 | 1.19 | 1.19 | 1 | 1011.9 |
| 20260509181545 | 8 | 306 | 3.2 | 16.1 | 0.25 | 1.12 | 1.12 | 1 | 1011.7 |
| 20260509180004 | 8 | 266 | 6.4 | 16.1 | 0.23 | 1.07 | 1.07 | 1 | 1011.6 |
| 20260509174538 | 8 | 241 | 8.0 | 17.7 | 0.20 | 1.02 | 1.02 | 1 | 1011.4 |
| 20260509173010 | 9 | 323 | 6.4 | 20.9 | 0.15 | 0.91 | 0.91 | 1 | 1011.4 |
| 20260509171552 | 9 | 277 | 8.0 | 14.5 | 0.13 | 0.86 | 0.86 | 1 | 1011.2 |
| 20260509170011 | 8 | 220 | 8.0 | 16.1 | 0.15 | 0.84 | 0.84 | 1 | 1011.2 |
| 20260509164545 | 8 | 300 | 3.2 | 14.5 | 0.18 | 0.81 | 0.81 | 1 | 1011.4 |
| 20260509163023 | 8 | 276 | 6.4 | 20.9 | 0.18 | 0.76 | 0.76 | 1 | 1011.7 |
| 20260509161601 | 8 | 78 | 8.0 | 20.9 | 0.18 | 0.71 | 0.71 | 1 | 1011.9 |
| 20260509160013 | 8 | 275 | 9.7 | 19.3 | 0.15 | 0.69 | 0.69 | 1 | 1012.0 |
| 20260509154653 | 8 | 232 | 6.4 | 16.1 | 0.13 | 0.64 | 0.64 | 1 | 1012.1 |